Flag for Germany Weather past 2 weeks in Bornheim (Rheinland), North Rhine-Westphalia, Germany

Now
40 °F

Overcast.


Feels Like: 33 °F
Forecast: 35 / 46 °F
Wind: 10 mph from West

Location: Bonn-Hangelar

Current Time: Apr 1, 2015 at 12:58:00 PM

Latest Report: Apr 1, 2015 at 12:00 PM


Visibility: 14 mi

Pressure: 30.12 "Hg

Humidity: 82%

Dew point: 35 °F

Location of Bornheim (Rheinland)Location

Historic Weather in Bornheim (Rheinland) — Graph

°F

Bornheim (Rheinland) temperature yesterday

Maximum temperature yesterday: 51 °F (at 4:00 AM)
Minimum temperature yesterday: 37 °F (at 11:00 PM)
Average temperature yesterday: 47 °F

Past Weeks' High & Low Weather Summary

 TemperatureHumidityPressure
High60 °F (Mar 17, 1:00 PM)100% (Mar 19, 4:00 AM)30.40 "Hg (Mar 19, 4:00 AM)
Low32 °F (Mar 23, 2:00 AM)46% (Mar 17, 1:00 PM)29.35 "Hg (Mar 29, 6:00 PM)
Average43 °F84%29.99 "Hg
* Reported Mar 17 11:00 AM — Apr 1 12:00 Noon, Bornheim (Rheinland), Weather by CustomWeather, © 2015

Note: Actual official high and low records may vary slightly from our data, if they occured in-between our weather recording intervals... More about our weather records

Advertising

Bornheim (Rheinland) weather history for previous 24 hours

 ConditionsComfort  
Time TempWeatherWind HumidityBarometerVisibility
12:00 PM
Wed, Apr 1
40 °FOvercast.10 mph82%30.12 "Hg14 mi
11:00 AM39 °FOvercast.8 mph87%30.11 "Hg11 mi
10:00 AM38 °FOvercast.9 mph85%30.09 "Hg10 mi
9:00 AM37 °FSleet. Overcast.10 mph85%30.08 "Hg3 mi
8:00 AM37 °FOvercast.9 mph83%30.04 "Hg22 mi
7:00 AM35 °FOvercast.12 mph92%30.02 "Hg22 mi
6:00 AM38 °FOvercast.13 mph77%29.98 "Hg31 mi
5:00 AM39 °FPassing clouds.12 mph71%29.97 "Hg22 mi
4:00 AM38 °FClear.14 mph75%29.94 "Hg22 mi
3:00 AM40 °FOvercast.14 mph76%29.93 "Hg25 mi
2:00 AM40 °FPassing clouds.14 mph77%29.93 "Hg28 mi
1:00 AM40 °FOvercast.12 mph79%29.91 "Hg28 mi
12:00 AM38 °FPassing clouds.10 mph86%29.90 "Hg43 mi
11:00 PM
Tue, Mar 31
37 °FLow clouds.14 mph91%29.89 "Hg43 mi
10:00 PM40 °FPassing clouds.9 mph84%29.87 "Hg34 mi
9:00 PM41 °FOvercast.16 mph81%29.86 "Hg43 mi
8:00 PM48 °FLight rain. Partly sunny.10 mph52%29.80 "Hg43 mi
7:00 PM48 °FPartly sunny.12 mph56%29.77 "Hg43 mi
6:00 PM49 °FOvercast.14 mph54%29.77 "Hg16 mi
5:00 PM49 °FPassing clouds.16 mph51%29.75 "Hg37 mi
4:00 PM51 °FPassing clouds.16 mph54%29.70 "Hg9 mi
3:00 PM48 °FPartly sunny.16 mph58%29.67 "Hg28 mi
2:00 PM50 °FSprinkles. Overcast.14 mph69%29.62 "Hg16 mi
1:00 PM47 °FSprinkles. Overcast.16 mph74%29.58 "Hg11 mi
12:00 PM50 °FLow clouds.16 mph79%29.54 "Hg16 mi
Weather by CustomWeather, © 2015

See weather overviewHow to use our weather pages